Weather History for Ionia, MI

Change the Weather History Date:

Tuesday, February 21, 2012

  Actual Average (KGRR) Record (KGRR)
Temperature  
Mean Temperature 34 °F 28 °F  
Max Temperature 38 °F 35 °F 66 °F (1930)
Min Temperature 29 °F 21 °F -8 °F (1968)
Degree Days  
Heating Degree Days 32 37  
Month to date heating degree days 817  
Since 1 July heating degree days 4524  
Cooling Degree Days 0 0  
Month to date cooling degree days 0  
Year to date cooling degree days 0  
Moisture  
Dew Point 30 °F    
Average Humidity 83    
Maximum Humidity 95    
Minimum Humidity 69    
Precipitation  
Precipitation 0.00 in 0.06 in 2.96 in (1997)
Month to date precipitation 1.27  
Year to date precipitation 3.36  
Snow  
Snow 0.00 in 0.50 in 6.00 in (1898)
Month to date snowfall 11.5  
Since 1 July snowfall 61.5  
Snow Depth -    
Sea Level Pressure  
Sea Level Pressure 29.70 in    
Wind  
Wind Speed 12 mph (South)    
Max Wind Speed 23 mph    
Max Gust Speed 31 mph    
Visibility 8 miles    
Events Rain , Snow    
T = Trace of Precipitation, MM = Missing Value Source: NWS Daily Summary

Daily Weather History Graph

Daily Weather History Graph

Search for Another Location

Airport:

Trip Planner

Search our weather history database for the weather conditions in past years. The results will help you decide how hot, cold, wet, or windy it might be!

Date:

Astronomy

Feb. 21, 2012 Rise Set
Actual Time 7:29 AM EST 6:18 PM EST
Civil Twilight 7:00 AM EST 6:47 PM EST
Nautical Twilight 6:27 AM EST 7:20 PM EST
Astronomical Twilight 5:55 AM EST 7:53 PM EST
Moon 6:57 AM EST (2/21) 6:26 PM EST (2/21)
Length of Visible Light 11h 46m
Length of Day
10h 49m
Waning Crescent, 0% of the Moon is Illuminated
Feb 21
Waning Crescent
Feb 21
New
Feb 29
First Quarter
Mar 8
Full
Mar 14
Last Quarter

Hourly Weather History & Observations

Time (EST) Temp. Windchill Dew Point Humidity Pressure Visibility Wind Dir Wind Speed Gust Speed Precip Events Conditions
12:14 AM 30.0 °F 20.0 °F 23.9 °F 78% 30.03 in 10.0 mi SSE 12.7 mph - N/A   Clear
12:34 AM 30.0 °F 19.1 °F 23.9 °F 78% 30.02 in 10.0 mi SE 15.0 mph - N/A   Clear
12:54 AM 30.2 °F 20.2 °F 24.6 °F 80% 30.00 in 10.0 mi SE 12.7 mph - N/A   Clear
1:14 AM 30.4 °F 20.0 °F 24.8 °F 80% 29.99 in 10.0 mi SE 13.8 mph - N/A   Clear
1:34 AM 30.2 °F 20.2 °F 24.8 °F 80% 29.97 in 10.0 mi SE 12.7 mph 17.3 mph N/A   Clear
1:54 AM 30.2 °F 21.9 °F 24.8 °F 80% 29.97 in 10.0 mi SSE 9.2 mph - N/A   Clear
2:14 AM 29.8 °F 23.9 °F 24.8 °F 81% 29.96 in 10.0 mi SE 5.8 mph - N/A   Clear
2:34 AM 30.0 °F 21.7 °F 25.2 °F 82% 29.94 in 10.0 mi SE 9.2 mph - N/A   Clear
2:54 AM 30.6 °F 23.1 °F 25.3 °F 81% 29.93 in 10.0 mi SE 8.1 mph - N/A   Scattered Clouds
3:14 AM 31.1 °F 22.4 °F 25.2 °F 79% 29.90 in 10.0 mi SE 10.4 mph - N/A   Clear
3:34 AM 31.1 °F 21.9 °F 25.0 °F 78% 29.88 in 10.0 mi SE 11.5 mph - N/A   Clear
3:53 AM 31.1 °F 22.4 °F 24.8 °F 77% 29.86 in 10.0 mi SE 10.4 mph - N/A   Clear
4:13 AM 31.1 °F 23.1 °F 24.8 °F 77% 29.84 in 10.0 mi SE 9.2 mph - N/A   Clear
4:33 AM 31.5 °F 22.3 °F 24.8 °F 76% 29.83 in 10.0 mi SE 11.5 mph - N/A   Clear
4:54 AM 32.0 °F 23.0 °F 24.6 °F 74% 29.81 in 10.0 mi SSE 11.5 mph - N/A   Clear
5:14 AM 32.0 °F 21.6 °F 24.3 °F 73% 29.79 in 10.0 mi SSE 15.0 mph - N/A   Clear
5:34 AM 32.4 °F 23.0 °F 23.9 °F 71% 29.78 in 10.0 mi SSE 12.7 mph - N/A   Clear
5:54 AM 32.2 °F 23.2 °F 23.9 °F 72% 29.76 in 10.0 mi SSE 11.5 mph - N/A   Clear
6:14 AM 32.2 °F 24.4 °F 24.1 °F 72% 29.74 in 10.0 mi SSE 9.2 mph - N/A   Clear
6:34 AM 32.9 °F 25.9 °F 23.9 °F 69% 29.73 in 10.0 mi SSE 8.1 mph - N/A   Scattered Clouds
7:14 AM 33.4 °F 25.9 °F 24.3 °F 69% 29.71 in 10.0 mi SSE 9.2 mph - N/A   Overcast
7:33 AM 33.4 °F 25.9 °F 24.6 °F 70% 29.71 in 10.0 mi SSE 9.2 mph - N/A   Overcast
7:54 AM 33.8 °F 27.0 °F 24.6 °F 69% 29.71 in 10.0 mi South 8.1 mph - N/A   Overcast
8:14 AM 34.2 °F 26.2 °F 25.0 °F 69% 29.71 in 10.0 mi South 10.4 mph - N/A   Overcast
8:34 AM 34.2 °F 25.7 °F 25.5 °F 71% 29.70 in 10.0 mi SSE 11.5 mph - N/A   Overcast
8:54 AM 34.7 °F 26.9 °F 25.7 °F 70% 29.69 in 10.0 mi South 10.4 mph - N/A   Overcast
9:14 AM 34.3 °F 26.5 °F 27.0 °F 74% 29.67 in 10.0 mi SSE 10.4 mph - N/A Snow Light Snow
9:34 AM 34.7 °F 26.4 °F 26.8 °F 73% 29.66 in 10.0 mi SSE 11.5 mph - N/A   Overcast
9:54 AM 34.3 °F 26.5 °F 28.0 °F 78% 29.66 in 7.0 mi South 10.4 mph - N/A Snow Light Snow
10:13 AM 32.9 °F 24.7 °F 30.2 °F 90% 29.65 in 5.0 mi South 10.4 mph - N/A Snow Light Snow
10:34 AM 32.7 °F 25.7 °F 31.1 °F 94% 29.64 in 2.5 mi SSE 8.1 mph - N/A Snow Light Snow
10:54 AM 32.9 °F 25.9 °F 31.6 °F 95% 29.64 in 5.0 mi South 8.1 mph - N/A Snow Light Snow
11:14 AM 33.3 °F 26.4 °F 31.8 °F 94% 29.63 in 5.0 mi South 8.1 mph - N/A   Overcast
11:33 AM 33.4 °F 26.6 °F 32.0 °F 94% 29.62 in 4.0 mi South 8.1 mph - N/A   Overcast
12:14 PM 34.5 °F 27.3 °F 32.9 °F 94% 29.62 in 2.5 mi SSW 9.2 mph - N/A   Overcast
12:34 PM 34.7 °F 28.1 °F 33.1 °F 94% 29.60 in 3.0 mi SSW 8.1 mph - N/A   Overcast
12:54 PM 35.6 °F 28.0 °F 33.8 °F 93% 29.59 in 5.0 mi SSW 10.4 mph - N/A   Overcast
1:14 PM 36.1 °F 28.2 °F 34.0 °F 92% 29.58 in 7.0 mi SW 11.5 mph - N/A   Overcast
1:33 PM 36.7 °F 29.9 °F 34.2 °F 91% 29.57 in 10.0 mi SW 9.2 mph - N/A   Overcast
1:54 PM 37.6 °F 30.0 °F 34.3 °F 88% 29.56 in 10.0 mi SW 11.5 mph - N/A   Overcast
2:14 PM 37.8 °F 31.3 °F 34.7 °F 89% 29.57 in 10.0 mi WSW 9.2 mph - N/A   Overcast
2:34 PM 38.3 °F 30.9 °F 34.5 °F 86% 29.56 in 10.0 mi WSW 11.5 mph 19.6 mph N/A   Overcast
2:54 PM 38.3 °F 30.9 °F 34.7 °F 87% 29.56 in 10.0 mi WSW 11.5 mph 19.6 mph N/A   Overcast
3:14 PM 38.5 °F 30.7 °F 34.3 °F 85% 29.56 in 10.0 mi WSW 12.7 mph 19.6 mph N/A   Overcast
3:34 PM 38.5 °F 28.9 °F 34.5 °F 86% 29.57 in 10.0 mi WSW 18.4 mph 27.6 mph N/A   Overcast
3:54 PM 37.9 °F 28.5 °F 35.1 °F 89% 29.57 in 7.0 mi WSW 17.3 mph 23.0 mph N/A   Overcast
4:14 PM 37.8 °F 29.4 °F 35.6 °F 92% 29.57 in 4.0 mi WSW 13.8 mph - N/A   Light Drizzle
4:34 PM 37.8 °F 30.7 °F 35.6 °F 92% 29.57 in 5.0 mi SW 10.4 mph - N/A   Drizzle
4:54 PM 37.8 °F 31.3 °F 35.6 °F 92% 29.57 in 3.0 mi SW 9.2 mph - N/A   Drizzle
5:14 PM 37.6 °F 30.5 °F 35.6 °F 93% 29.56 in 4.0 mi SW 10.4 mph - N/A   Drizzle
5:34 PM 37.4 °F 29.8 °F 35.8 °F 94% 29.56 in 2.5 mi SW 11.5 mph - N/A Rain Rain
5:54 PM 37.8 °F 29.0 °F 36.1 °F 94% 29.57 in 2.5 mi WSW 15.0 mph 20.7 mph N/A   Drizzle
6:14 PM 37.9 °F 28.5 °F 36.3 °F 94% 29.57 in 2.0 mi WSW 17.3 mph 24.2 mph N/A   Drizzle
6:33 PM 38.1 °F 28.8 °F 36.0 °F 92% 29.57 in 4.0 mi WSW 17.3 mph - N/A   Light Drizzle
6:54 PM 37.8 °F 26.8 °F 35.6 °F 92% 29.58 in 5.0 mi West 23.0 mph 31.1 mph N/A   Overcast
7:14 PM 37.6 °F 27.7 °F 34.9 °F 90% 29.60 in 10.0 mi WSW 18.4 mph 26.5 mph N/A   Light Drizzle
8:13 PM 37.6 °F 27.7 °F 32.9 °F 83% 29.63 in 10.0 mi West 18.4 mph 29.9 mph N/A   Overcast
8:34 PM 37.4 °F 28.9 °F 32.9 °F 84% 29.64 in 10.0 mi West 13.8 mph 18.4 mph N/A   Overcast
8:54 PM 37.0 °F 28.1 °F 32.9 °F 85% 29.64 in 10.0 mi WSW 15.0 mph 20.7 mph N/A   Overcast
9:14 PM 36.9 °F 27.8 °F 32.9 °F 86% 29.63 in 10.0 mi WSW 15.0 mph - N/A   Overcast
9:34 PM 36.7 °F 27.6 °F 32.9 °F 86% 29.63 in 10.0 mi SW 15.0 mph 20.7 mph N/A   Overcast
9:54 PM 36.7 °F 27.2 °F 32.5 °F 85% 29.62 in 10.0 mi WSW 16.1 mph 23.0 mph N/A   Overcast
10:14 PM 35.8 °F 26.5 °F 32.2 °F 87% 29.62 in 10.0 mi WSW 15.0 mph 19.6 mph N/A   Mostly Cloudy
10:34 PM 36.0 °F 27.5 °F 32.2 °F 86% 29.62 in 10.0 mi SW 12.7 mph 17.3 mph N/A   Mostly Cloudy
10:54 PM 36.0 °F 28.0 °F 32.5 °F 87% 29.62 in 10.0 mi SW 11.5 mph - N/A   Overcast
11:14 PM 35.6 °F 28.0 °F 32.4 °F 88% 29.61 in 10.0 mi SW 10.4 mph - N/A   Overcast
11:34 PM 35.4 °F 28.4 °F 32.2 °F 88% 29.60 in 10.0 mi SW 9.2 mph - N/A   Overcast
11:54 PM 34.9 °F 27.1 °F 32.2 °F 90% 29.60 in 7.0 mi SW 10.4 mph - N/A   Mostly Cloudy